Location: Dalton
(34.7700°N, 84.9700°W)
Time: 21:39:21
(UTC-05:00)

OTV 5 (USA 277) - Pass Details

Date: 14 October 2017
Orbit: 404 x 417 km, 43.0° (Epoch: 07 September)

Event Time Altitude Azimuth Distance (km) Brightness Sun altitude
Rises 21:09:00 0° 296° (WNW) 2,354 ? -26.0°
Reaches altitude 10° 21:11:30 10° 314° (NW) 1,490 ? -26.5°
Enters shadow 21:12:30 15° 328° (NNW) 1,226 ? -26.7°
